Volver al catálogo

COSMOS 1796

ActivoMilitarLEO
NORAD 17140·PAYLOAD·🇷🇺 Russia

Lanzado Nov 21, 1986 desde Plesetsk Cosmodrome

Loading…

Próximos Pases (próximas 24 horas)

TLE

ActualizadoSource: Space-Track

Época: Sep 14, 2026, 15:46 UTC

1 17140U 86092C   26257.65741610 -.00000014  00000-0  10440-4 0  9999
2 17140  74.0129 210.3551 0016101 304.7150 228.7838 12.49644831816357

Sigue COSMOS 1796 en tiempo real con AllMySat

Download on the App Store